CW6012 Weather Reports


Display with metric or nautical units.
time (UTC)temp
F
wind
direction
speed
MPH
gust
MPH
rain 1hr
in
rain 24hr
in
rain mn
in
humidity
%
barometer
mb
20210925215535 86 91 0.0 3.0 0.00 0.00 0.00 39 1016.7
20210925215240 87 51 0.0 3.0 0.00 0.00 0.00 39 1016.7
20210925215008 87 51 0.0 3.0 0.00 0.00 0.00 39 1016.7
20210925214738 87 51 0.0 3.0 0.00 0.00 0.00 39 1016.7
20210925214505 86 51 0.0 3.0 0.00 0.00 0.00 39 1016.7
20210925214344 86 42 0.0 3.0 0.00 0.00 0.00 41 1016.8
20210925214215 86 71 0.0 3.0 0.00 0.00 0.00 41 1016.8
20210925214038 86 52 0.0 3.0 0.00 0.00 0.00 40 1016.8
20210925213920 86 52 0.0 3.0 0.00 0.00 0.00 39 1016.8
20210925213758 86 44 1.0 3.0 0.00 0.00 0.00 40 1016.8
20210925213641 86 84 1.0 3.0 0.00 0.00 0.00 40 1016.8
20210925213518 86 82 1.0 3.0 0.00 0.00 0.00 41 1016.8
20210925213351 86 75 1.0 3.0 0.00 0.00 0.00 41 1016.8
20210925213230 86 294 1.0 2.0 0.00 0.00 0.00 42 1016.8
20210925213056 86 140 0.0 2.0 0.00 0.00 0.00 41 1016.8
20210925212934 86 140 0.0 2.0 0.00 0.00 0.00 41 1016.9
20210925212819 86 77 0.0 2.0 0.00 0.00 0.00 40 1016.9
20210925212656 86 125 0.0 2.0 0.00 0.00 0.00 40 1016.9
20210925212533 86 123 1.0 2.0 0.00 0.00 0.00 40 1016.9
20210925212409 86 117 0.0 2.0 0.00 0.00 0.00 41 1016.9
20210925212246 86 63 1.0 2.0 0.00 0.00 0.00 41 1016.9
20210925212107 86 63 1.0 2.0 0.00 0.00 0.00 40 1016.9
20210925211947 86 69 0.0 2.0 0.00 0.00 0.00 40 1016.9
20210925211825 86 51 0.0 2.0 0.00 0.00 0.00 41 1016.9
20210925211704 86 51 0.0 3.0 0.00 0.00 0.00 40 1016.9
20210925211550 86 51 0.0 3.0 0.00 0.00 0.00 39 1016.9
20210925211433 86 51 0.0 3.0 0.00 0.00 0.00 39 1017.0
20210925211248 86 50 0.0 3.0 0.00 0.00 0.00 40 1017.0
20210925211130 86 325 1.0 3.0 0.00 0.00 0.00 40 1017.0
20210925211004 86 325 1.0 3.0 0.00 0.00 0.00 43 1017.0
20210925210841 86 98 0.0 2.0 0.00 0.00 0.00 41 1017.0
20210925210714 86 98 0.0 2.0 0.00 0.00 0.00 39 1017.0
20210925210550 86 98 0.0 3.0 0.00 0.00 0.00 39 1017.0
20210925210411 86 98 1.0 3.0 0.00 0.00 0.00 40 1017.0
20210925210238 86 98 1.0 3.0 0.00 0.00 0.00 41 1017.0
20210925210100 86 347 1.0 3.0 0.00 0.00 0.00 42 1017.0
20210925205938 86 76 1.0 3.0 0.00 0.00 0.00 41 1017.0
20210925205819 86 54 1.0 3.0 0.00 0.00 0.00 41 1017.0
20210925205657 86 47 0.0 3.0 0.00 0.00 0.00 40 1017.0
20210925205518 86 44 0.0 3.0 0.00 0.00 0.00 41 1017.0
20210925205406 86 90 1.0 3.0 0.00 0.00 0.00 42 1017.0
20210925205239 86 90 1.0 3.0 0.00 0.00 0.00 41 1017.0
20210925205112 86 82 0.0 3.0 0.00 0.00 0.00 42 1017.0
20210925204954 86 82 0.0 3.0 0.00 0.00 0.00 42 1017.0
20210925204835 86 82 0.0 3.0 0.00 0.00 0.00 43 1017.0
20210925204713 86 82 1.0 3.0 0.00 0.00 0.00 42 1017.0
20210925204553 86 49 1.0 2.0 0.00 0.00 0.00 44 1017.0
20210925204413 85 76 0.0 2.0 0.00 0.00 0.00 43 1017.2
20210925204249 85 88 0.0 2.0 0.00 0.00 0.00 43 1017.2
20210925204125 85 90 0.0 2.0 0.00 0.00 0.00 44 1017.2
20210925204008 85 90 0.0 2.0 0.00 0.00 0.00 44 1017.2
20210925203845 85 90 0.0 2.0 0.00 0.00 0.00 43 1017.2
20210925203719 85 98 0.0 2.0 0.00 0.00 0.00 42 1017.2
20210925203601 85 98 1.0 2.0 0.00 0.00 0.00 41 1017.2
20210925203417 85 98 1.0 3.0 0.00 0.00 0.00 42 1017.2
20210925203245 84 74 0.0 3.0 0.00 0.00 0.00 43 1017.2
20210925203117 84 72 0.0 3.0 0.00 0.00 0.00 42 1017.2
20210925202942 84 85 0.0 3.0 0.00 0.00 0.00 42 1017.5
20210925202825 85 85 0.0 3.0 0.00 0.00 0.00 42 1017.5
20210925202654 85 81 1.0 3.0 0.00 0.00 0.00 41 1017.5
20210925202532 85 79 1.0 2.0 0.00 0.00 0.00 43 1017.5
20210925202406 85 88 0.0 2.0 0.00 0.00 0.00 41 1017.5
20210925202248 85 88 0.0 2.0 0.00 0.00 0.00 42 1017.5
20210925202120 85 88 0.0 4.0 0.00 0.00 0.00 43 1017.5
20210925202000 85 88 0.0 4.0 0.00 0.00 0.00 42 1017.5
20210925201837 85 88 0.0 4.0 0.00 0.00 0.00 43 1017.5
20210925201711 85 91 1.0 4.0 0.00 0.00 0.00 42 1017.5
20210925201555 84 90 1.0 4.0 0.00 0.00 0.00 42 1017.5
20210925201425 84 79 1.0 4.0 0.00 0.00 0.00 43 1017.6
20210925201303 84 102 1.0 3.0 0.00 0.00 0.00 43 1017.6
20210925201129 84 66 1.0 3.0 0.00 0.00 0.00 43 1017.6
20210925201005 84 139 1.0 3.0 0.00 0.00 0.00 44 1017.6
20210925200841 84 85 1.0 3.0 0.00 0.00 0.00 44 1017.6
20210925200728 84 78 0.0 2.0 0.00 0.00 0.00 42 1017.6
20210925200600 84 78 0.0 2.0 0.00 0.00 0.00 42 1017.6
20210925200437 84 78 0.0 2.0 0.00 0.00 0.00 43 1017.6
20210925200259 84 78 0.0 2.0 0.00 0.00 0.00 41 1017.6
20210925200139 84 78 0.0 2.0 0.00 0.00 0.00 41 1017.6
20210925195958 84 78 0.0 2.0 0.00 0.00 0.00 41 1017.8
20210925195834 84 74 0.0 3.0 0.00 0.00 0.00 42 1017.8
20210925195704 84 74 1.0 3.0 0.00 0.00 0.00 43 1017.8
20210925195525 84 76 1.0 3.0 0.00 0.00 0.00 43 1017.8
20210925195408 84 58 1.0 3.0 0.00 0.00 0.00 42 1017.8
20210925195246 84 44 0.0 3.0 0.00 0.00 0.00 41 1017.8
20210925195125 84 89 1.0 3.0 0.00 0.00 0.00 42 1017.8
20210925195005 84 105 1.0 5.0 0.00 0.00 0.00 44 1017.8
20210925194848 84 110 1.0 5.0 0.00 0.00 0.00 43 1017.8
20210925194731 84 90 0.0 5.0 0.00 0.00 0.00 41 1017.8
20210925194610 84 87 0.0 5.0 0.00 0.00 0.00 41 1017.8
20210925194444 84 89 0.0 5.0 0.00 0.00 0.00 41 1018.1
20210925194311 84 90 1.0 5.0 0.00 0.00 0.00 41 1018.1
20210925194153 84 13 0.0 2.0 0.00 0.00 0.00 43 1018.1
20210925194018 84 157 1.0 3.0 0.00 0.00 0.00 43 1018.1
20210925193852 84 89 1.0 3.0 0.00 0.00 0.00 43 1018.1
20210925193734 84 87 0.0 3.0 0.00 0.00 0.00 41 1018.1
20210925193558 84 71 0.0 3.0 0.00 0.00 0.00 42 1018.1
20210925193434 84 92 0.0 3.0 0.00 0.00 0.00 44 1018.1
20210925193317 84 92 0.0 3.0 0.00 0.00 0.00 43 1018.1
20210925193159 84 88 0.0 3.0 0.00 0.00 0.00 43 1018.1
20210925193033 84 98 1.0 4.0 0.00 0.00 0.00 43 1018.1
20210925192907 84 95 1.0 4.0 0.00 0.00 0.00 46 1018.2
20210925192726 84 110 0.0 4.0 0.00 0.00 0.00 45 1018.2
20210925192608 84 325 0.0 4.0 0.00 0.00 0.00 43 1018.2
20210925192455 84 325 0.0 4.0 0.00 0.00 0.00 48 1018.2
20210925192338 84 325 1.0 4.0 0.00 0.00 0.00 46 1018.2
20210925192216 84 350 1.0 3.0 0.00 0.00 0.00 45 1018.2
20210925192047 84 13 0.0 2.0 0.00 0.00 0.00 44 1018.2
20210925191924 84 5 1.0 2.0 0.00 0.00 0.00 44 1018.2
20210925191749 84 5 0.0 2.0 0.00 0.00 0.00 45 1018.2
20210925191619 84 76 0.0 2.0 0.00 0.00 0.00 46 1018.2
20210925191452 84 341 0.0 3.0 0.00 0.00 0.00 46 1018.6
20210925191325 84 76 0.0 3.0 0.00 0.00 0.00 46 1018.6
20210925191207 84 96 0.0 3.0 0.00 0.00 0.00 45 1018.6
20210925191044 84 96 1.0 3.0 0.00 0.00 0.00 46 1018.6
20210925190906 84 69 1.0 3.0 0.00 0.00 0.00 47 1018.6
20210925190748 84 136 1.0 3.0 0.00 0.00 0.00 47 1018.6
20210925190625 84 150 1.0 3.0 0.00 0.00 0.00 46 1018.6
20210925190503 84 327 1.0 5.0 0.00 0.00 0.00 47 1018.6
20210925190342 84 327 1.0 5.0 0.00 0.00 0.00 47 1018.6
20210925190224 84 327 1.0 5.0 0.00 0.00 0.00 48 1018.6
20210925190058 84 350 1.0 5.0 0.00 0.00 0.00 48 1018.6
20210925185938 84 92 0.0 5.0 0.00 0.00 0.00 46 1018.8
20210925185803 84 92 1.0 5.0 0.00 0.00 0.00 45 1018.8
20210925185638 84 107 0.0 3.0 0.00 0.00 0.00 49 1018.8
20210925185512 84 111 0.0 3.0 0.00 0.00 0.00 48 1018.8
20210925185348 84 111 0.0 3.0 0.00 0.00 0.00 45 1018.8
20210925185222 84 66 0.0 2.0 0.00 0.00 0.00 47 1018.8
20210925185042 84 66 0.0 2.0 0.00 0.00 0.00 47 1018.8
20210925184923 84 57 0.0 5.0 0.00 0.00 0.00 49 1018.8
20210925184757 83 57 0.0 5.0 0.00 0.00 0.00 47 1018.8
20210925184631 83 78 1.0 5.0 0.00 0.00 0.00 49 1018.8
20210925184505 83 86 0.0 5.0 0.00 0.00 0.00 49 1018.8
20210925184337 83 301 1.0 5.0 0.00 0.00 0.00 46 1019.1
20210925184158 83 289 3.0 5.0 0.00 0.00 0.00 45 1019.1
20210925184025 83 294 2.0 4.0 0.00 0.00 0.00 47 1019.1
20210925183859 83 294 1.0 4.0 0.00 0.00 0.00 48 1019.1
20210925183736 83 294 1.0 4.0 0.00 0.00 0.00 50 1019.1
20210925183601 83 360 2.0 4.0 0.00 0.00 0.00 49 1019.1
20210925183433 83 333 2.0 4.0 0.00 0.00 0.00 46 1019.1
20210925183313 83 17 0.0 2.0 0.00 0.00 0.00 48 1019.1
20210925183151 83 34 0.0 2.0 0.00 0.00 0.00 49 1019.1
20210925183030 83 53 0.0 2.0 0.00 0.00 0.00 47 1019.1
20210925182913 83 75 1.0 2.0 0.00 0.00 0.00 49 1019.2
20210925182752 83 78 0.0 2.0 0.00 0.00 0.00 48 1019.2
20210925182635 83 47 0.0 1.0 0.00 0.00 0.00 48 1019.2
20210925182458 83 47 0.0 2.0 0.00 0.00 0.00 46 1019.2
20210925182333 83 47 0.0 2.0 0.00 0.00 0.00 46 1019.2
20210925182217 83 47 0.0 2.0 0.00 0.00 0.00 48 1019.2
20210925182054 83 47 0.0 2.0 0.00 0.00 0.00 49 1019.2
20210925181925 83 47 0.0 2.0 0.00 0.00 0.00 48 1019.2
20210925181813 82 47 1.0 2.0 0.00 0.00 0.00 50 1019.2
20210925181658 82 44 1.0 2.0 0.00 0.00 0.00 50 1019.2
20210925181526 82 360 0.0 2.0 0.00 0.00 0.00 52 1019.2
20210925181407 82 77 0.0 2.0 0.00 0.00 0.00 49 1019.5
20210925181246 82 103 0.0 2.0 0.00 0.00 0.00 52 1019.5
20210925181117 82 94 0.0 1.0 0.00 0.00 0.00 49 1019.5
20210925180952 82 88 0.0 2.0 0.00 0.00 0.00 49 1019.5
20210925180827 82 88 0.0 2.0 0.00 0.00 0.00 48 1019.5
20210925180712 82 88 0.0 5.0 0.00 0.00 0.00 49 1019.5
20210925180540 82 88 0.0 5.0 0.00 0.00 0.00 48 1019.5
20210925180421 82 88 0.0 5.0 0.00 0.00 0.00 48 1019.5
20210925180256 82 88 0.0 5.0 0.00 0.00 0.00 47 1019.5
20210925180143 82 88 1.0 5.0 0.00 0.00 0.00 48 1019.5
20210925180001 82 308 2.0 5.0 0.00 0.00 0.00 49 1019.7
20210925175828 82 258 1.0 4.0 0.00 0.00 0.00 47 1019.7
20210925175706 82 348 1.0 4.0 0.00 0.00 0.00 48 1019.7
20210925175544 82 316 0.0 3.0 0.00 0.00 0.00 50 1019.7
20210925175428 82 331 0.0 3.0 0.00 0.00 0.00 51 1019.7
20210925175306 82 331 0.0 3.0 0.00 0.00 0.00 50 1019.7
20210925175139 82 330 1.0 3.0 0.00 0.00 0.00 53 1019.7
20210925175027 81 330 1.0 3.0 0.00 0.00 0.00 50 1019.7
20210925174900 81 109 0.0 1.0 0.00 0.00 0.00 50 1019.7
20210925174729 81 109 0.0 1.0 0.00 0.00 0.00 49 1019.7
20210925174605 81 109 0.0 1.0 0.00 0.00 0.00 50 1019.7
20210925174445 81 109 0.0 1.0 0.00 0.00 0.00 47 1019.9
20210925174324 82 109 0.0 1.0 0.00 0.00 0.00 47 1019.9
20210925174156 82 109 0.0 3.0 0.00 0.00 0.00 49 1019.9
20210925174025 82 109 0.0 3.0 0.00 0.00 0.00 47 1019.9
20210925173845 82 109 0.0 3.0 0.00 0.00 0.00 49 1019.9
20210925173722 82 109 0.0 3.0 0.00 0.00 0.00 47 1019.9
20210925173600 82 103 0.0 3.0 0.00 0.00 0.00 51 1019.9
20210925173439 82 104 1.0 3.0 0.00 0.00 0.00 47 1019.9
20210925173320 82 74 0.0 2.0 0.00 0.00 0.00 48 1019.9
20210925173149 82 62 0.0 2.0 0.00 0.00 0.00 49 1019.9
20210925173022 82 62 0.0 2.0 0.00 0.00 0.00 50 1019.9
20210925172910 82 62 0.0 2.0 0.00 0.00 0.00 51 1020.0
20210925172751 82 62 0.0 2.0 0.00 0.00 0.00 52 1020.0
20210925172630 82 78 0.0 2.0 0.00 0.00 0.00 50 1020.0
20210925172512 82 78 0.0 2.0 0.00 0.00 0.00 51 1020.0
20210925172343 81 78 0.0 2.0 0.00 0.00 0.00 50 1020.0
20210925172205 81 78 0.0 2.0 0.00 0.00 0.00 50 1020.0
20210925172044 82 84 0.0 2.0 0.00 0.00 0.00 49 1020.0
20210925171911 82 84 0.0 2.0 0.00 0.00 0.00 50 1020.0
20210925171743 82 5 0.0 2.0 0.00 0.00 0.00 51 1020.0
20210925171609 82 355 1.0 2.0 0.00 0.00 0.00 52 1020.0
20210925171443 81 355 0.0 2.0 0.00 0.00 0.00 50 1020.1
20210925171316 81 348 0.0 2.0 0.00 0.00 0.00 51 1020.1
20210925171155 81 348 0.0 2.0 0.00 0.00 0.00 55 1020.1
20210925171036 81 5 0.0 2.0 0.00 0.00 0.00 53 1020.1
20210925170911 81 5 1.0 2.0 0.00 0.00 0.00 53 1020.1
20210925170728 81 11 0.0 2.0 0.00 0.00 0.00 55 1020.1
20210925170603 81 24 0.0 1.0 0.00 0.00 0.00 53 1020.1
20210925170434 81 24 0.0 1.0 0.00 0.00 0.00 52 1020.1
20210925170249 81 24 0.0 1.0 0.00 0.00 0.00 51 1020.1
20210925170111 81 24 0.0 1.0 0.00 0.00 0.00 51 1020.1
20210925165947 81 24 0.0 1.0 0.00 0.00 0.00 51 1020.2
20210925165823 81 24 0.0 1.0 0.00 0.00 0.00 52 1020.2
20210925165657 81 24 0.0 1.0 0.00 0.00 0.00 49 1020.2
20210925165515 82 24 0.0 2.0 0.00 0.00 0.00 51 1020.2
20210925165351 82 24 0.0 2.0 0.00 0.00 0.00 50 1020.2
20210925165230 82 24 0.0 2.0 0.00 0.00 0.00 50 1020.2
20210925165107 81 24 0.0 2.0 0.00 0.00 0.00 53 1020.2
20210925164920 81 24 0.0 2.0 0.00 0.00 0.00 54 1020.2
20210925164755 81 24 0.0 2.0 0.00 0.00 0.00 54 1020.2
20210925164632 81 13 0.0 2.0 0.00 0.00 0.00 52 1020.2
20210925164507 81 13 0.0 2.0 0.00 0.00 0.00 54 1020.2
20210925164339 81 13 0.0 2.0 0.00 0.00 0.00 54 1020.2
20210925164211 81 13 0.0 2.0 0.00 0.00 0.00 56 1020.2
20210925164036 80 13 1.0 2.0 0.00 0.00 0.00 56 1020.2
20210925163912 80 76 0.0 2.0 0.00 0.00 0.00 54 1020.2
20210925163746 80 78 0.0 2.0 0.00 0.00 0.00 53 1020.2
20210925163616 80 94 0.0 1.0 0.00 0.00 0.00 55 1020.2
20210925163452 80 94 0.0 1.0 0.00 0.00 0.00 55 1020.2
20210925163335 80 94 0.0 1.0 0.00 0.00 0.00 56 1020.2
20210925163154 79 94 0.0 1.0 0.00 0.00 0.00 56 1020.2
20210925163032 79 96 0.0 1.0 0.00 0.00 0.00 56 1020.2
20210925162910 79 96 0.0 1.0 0.00 0.00 0.00 54 1020.4
20210925162748 79 96 0.0 2.0 0.00 0.00 0.00 54 1020.4
20210925162626 79 96 0.0 2.0 0.00 0.00 0.00 56 1020.4
20210925162459 79 96 0.0 2.0 0.00 0.00 0.00 54 1020.4
20210925162333 79 96 0.0 2.0 0.00 0.00 0.00 54 1020.4
20210925162216 79 96 0.0 2.0 0.00 0.00 0.00 53 1020.4
20210925162051 79 96 0.0 2.0 0.00 0.00 0.00 52 1020.4
20210925161922 80 96 0.0 2.0 0.00 0.00 0.00 53 1020.4
20210925161801 80 78 0.0 2.0 0.00 0.00 0.00 53 1020.4
20210925161643 80 78 0.0 2.0 0.00 0.00 0.00 52 1020.4
20210925161500 80 78 0.0 2.0 0.00 0.00 0.00 53 1020.5
20210925161342 80 78 0.0 1.0 0.00 0.00 0.00 55 1020.5
20210925161227 80 78 0.0 1.0 0.00 0.00 0.00 55 1020.5
20210925161105 80 78 0.0 1.0 0.00 0.00 0.00 55 1020.5
20210925160935 80 78 0.0 1.0 0.00 0.00 0.00 56 1020.5
20210925160816 80 78 0.0 1.0 0.00 0.00 0.00 57 1020.5
20210925160700 80 78 0.0 2.0 0.00 0.00 0.00 56 1020.5
20210925160520 80 80 0.0 2.0 0.00 0.00 0.00 54 1020.5
20210925160352 80 80 0.0 2.0 0.00 0.00 0.00 56 1020.5
20210925160223 80 80 0.0 2.0 0.00 0.00 0.00 56 1020.5
20210925160041 80 80 0.0 2.0 0.00 0.00 0.00 52 1020.5
20210925155905 80 80 1.0 2.0 0.00 0.00 0.00 53 1020.6
20210925155742 81 360 0.0 2.0 0.00 0.00 0.00 55 1020.6
20210925155621 81 360 0.0 2.0 0.00 0.00 0.00 55 1020.6
20210925155453 81 360 0.0 2.0 0.00 0.00 0.00 55 1020.6
20210925155331 81 360 0.0 2.0 0.00 0.00 0.00 55 1020.6
20210925155159 81 360 1.0 2.0 0.00 0.00 0.00 56 1020.6
20210925155039 81 360 0.0 2.0 0.00 0.00 0.00 53 1020.6
20210925154915 81 360 0.0 2.0 0.00 0.00 0.00 53 1020.6
20210925154749 81 360 0.0 2.0 0.00 0.00 0.00 55 1020.6
20210925154626 81 360 0.0 2.0 0.00 0.00 0.00 55 1020.6
20210925154458 81 360 0.0 2.0 0.00 0.00 0.00 55 1020.5
20210925154328 81 360 0.0 2.0 0.00 0.00 0.00 55 1020.5
20210925154206 81 360 0.0 2.0 0.00 0.00 0.00 53 1020.5
20210925154044 81 360 0.0 2.0 0.00 0.00 0.00 53 1020.5
20210925153917 81 360 0.0 1.0 0.00 0.00 0.00 53 1020.5
20210925153758 80 360 0.0 1.0 0.00 0.00 0.00 55 1020.5
20210925153639 80 360 0.0 1.0 0.00 0.00 0.00 54 1020.5
20210925153513 80 360 0.0 1.0 0.00 0.00 0.00 53 1020.5
20210925153355 80 29 0.0 1.0 0.00 0.00 0.00 54 1020.5
20210925153215 81 29 0.0 1.0 0.00 0.00 0.00 52 1020.5
20210925153049 81 29 0.0 1.0 0.00 0.00 0.00 52 1020.5
20210925152927 81 29 0.0 1.0 0.00 0.00 0.00 54 1020.3
20210925152800 81 29 0.0 1.0 0.00 0.00 0.00 52 1020.3
20210925152645 81 29 0.0 1.0 0.00 0.00 0.00 55 1020.3
20210925152519 81 29 0.0 1.0 0.00 0.00 0.00 55 1020.3
20210925152349 81 29 0.0 1.0 0.00 0.00 0.00 53 1020.3
20210925152225 81 29 0.0 1.0 0.00 0.00 0.00 53 1020.3
20210925152103 80 29 0.0 1.0 0.00 0.00 0.00 53 1020.3
20210925151932 80 29 0.0 1.0 0.00 0.00 0.00 56 1020.3
20210925151814 80 29 0.0 1.0 0.00 0.00 0.00 56 1020.3
20210925151657 80 29 0.0 1.0 0.00 0.00 0.00 55 1020.3
20210925151532 80 29 0.0 1.0 0.00 0.00 0.00 55 1020.3
20210925151359 80 29 0.0 1.0 0.00 0.00 0.00 57 1020.2
20210925151239 79 29 0.0 1.0 0.00 0.00 0.00 57 1020.2
20210925151117 79 29 0.0 1.0 0.00 0.00 0.00 59 1020.2
20210925150947 79 29 0.0 1.0 0.00 0.00 0.00 59 1020.2
20210925150823 79 29 0.0 1.0 0.00 0.00 0.00 59 1020.2
20210925150654 79 29 0.0 1.0 0.00 0.00 0.00 58 1020.2
20210925150535 78 29 0.0 1.0 0.00 0.00 0.00 59 1020.2
20210925150408 78 29 0.0 1.0 0.00 0.00 0.00 60 1020.2
20210925150239 78 29 0.0 1.0 0.00 0.00 0.00 58 1020.2
20210925150101 78 29 0.0 1.0 0.00 0.00 0.00 61 1020.2
20210925145928 78 29 0.0 1.0 0.00 0.00 0.00 59 1020.1
20210925145810 78 29 0.0 1.0 0.00 0.00 0.00 60 1020.1
20210925145642 77 29 0.0 1.0 0.00 0.00 0.00 62 1020.1
20210925145515 77 29 0.0 1.0 0.00 0.00 0.00 61 1020.1
20210925145353 77 29 0.0 1.0 0.00 0.00 0.00 60 1020.1
20210925145227 77 29 0.0 1.0 0.00 0.00 0.00 59 1020.1
20210925145054 76 29 0.0 1.0 0.00 0.00 0.00 60 1020.1
20210925144928 77 29 0.0 1.0 0.00 0.00 0.00 59 1020.1
20210925144805 77 29 0.0 2.0 0.00 0.00 0.00 61 1020.1
20210925144640 77 29 0.0 2.0 0.00 0.00 0.00 64 1020.1
20210925144518 76 29 0.0 2.0 0.00 0.00 0.00 63 1020.1
20210925144402 76 29 0.0 2.0 0.00 0.00 0.00 63 1020.0
20210925144239 76 29 0.0 2.0 0.00 0.00 0.00 63 1020.0
20210925144107 75 29 0.0 2.0 0.00 0.00 0.00 63 1020.0
20210925143939 75 29 0.0 2.0 0.00 0.00 0.00 62 1020.0
20210925143821 75 24 0.0 1.0 0.00 0.00 0.00 64 1020.0
20210925143651 75 24 0.0 1.0 0.00 0.00 0.00 64 1020.0
20210925143526 74 24 0.0 1.0 0.00 0.00 0.00 66 1020.0
20210925143359 74 24 0.0 1.0 0.00 0.00 0.00 66 1020.0
20210925143216 74 24 0.0 1.0 0.00 0.00 0.00 68 1020.0
20210925143053 73 24 0.0 1.0 0.00 0.00 0.00 67 1020.0
20210925142935 73 24 0.0 1.0 0.00 0.00 0.00 68 1019.8
20210925142815 73 24 0.0 1.0 0.00 0.00 0.00 70 1019.8
20210925142651 72 24 0.0 1.0 0.00 0.00 0.00 70 1019.8
20210925142512 72 24 0.0 1.0 0.00 0.00 0.00 71 1019.8
20210925142348 72 24 0.0 1.0 0.00 0.00 0.00 71 1019.8
20210925142215 71 24 0.0 1.0 0.00 0.00 0.00 71 1019.8
20210925142054 71 24 0.0 1.0 0.00 0.00 0.00 71 1019.8
20210925141934 71 24 0.0 2.0 0.00 0.00 0.00 71 1019.8
20210925141811 70 24 0.0 2.0 0.00 0.00 0.00 74 1019.8
20210925141657 70 24 0.0 2.0 0.00 0.00 0.00 73 1019.8
20210925141527 70 24 0.0 2.0 0.00 0.00 0.00 73 1019.8
20210925141359 70 24 0.0 2.0 0.00 0.00 0.00 75 1019.7
20210925141241 70 24 1.0 2.0 0.00 0.00 0.00 74 1019.7
20210925141124 69 87 0.0 0.0 0.00 0.00 0.00 75 1019.7
20210925140958 69 87 0.0 0.0 0.00 0.00 0.00 74 1019.7
20210925140840 69 87 0.0 0.0 0.00 0.00 0.00 74 1019.7
20210925140703 69 87 0.0 0.0 0.00 0.00 0.00 75 1019.7
20210925140537 69 87 0.0 0.0 0.00 0.00 0.00 75 1019.7
20210925140406 68 87 0.0 0.0 0.00 0.00 0.00 76 1019.7
20210925140229 68 87 0.0 0.0 0.00 0.00 0.00 75 1019.7
20210925140045 68 87 0.0 0.0 0.00 0.00 0.00 76 1019.7
20210925135929 68 87 0.0 0.0 0.00 0.00 0.00 76 1019.7
20210925135806 68 87 0.0 0.0 0.00 0.00 0.00 76 1019.7
20210925135641 68 87 0.0 0.0 0.00 0.00 0.00 77 1019.7
20210925135517 68 87 0.0 0.0 0.00 0.00 0.00 76 1019.7
20210925135359 68 87 0.0 0.0 0.00 0.00 0.00 76 1019.7
20210925135242 67 87 0.0 0.0 0.00 0.00 0.00 77 1019.7
20210925135122 67 87 0.0 1.0 0.00 0.00 0.00 79 1019.7
20210925134945 67 87 0.0 1.0 0.00 0.00 0.00 80 1019.7
20210925134821 67 87 0.0 1.0 0.00 0.00 0.00 80 1019.7
20210925134701 66 87 0.0 1.0 0.00 0.00 0.00 80 1019.7
20210925134542 66 87 0.0 1.0 0.00 0.00 0.00 81 1019.7
20210925134419 66 87 0.0 1.0 0.00 0.00 0.00 81 1019.6
20210925134259 66 87 0.0 1.0 0.00 0.00 0.00 81 1019.6
20210925134141 65 87 0.0 1.0 0.00 0.00 0.00 82 1019.6
20210925134010 65 87 0.0 1.0 0.00 0.00 0.00 82 1019.6
20210925133852 65 87 0.0 1.0 0.00 0.00 0.00 82 1019.6
20210925133733 65 87 0.0 1.0 0.00 0.00 0.00 83 1019.6
20210925133607 64 87 0.0 1.0 0.00 0.00 0.00 83 1019.6
20210925133445 64 88 0.0 1.0 0.00 0.00 0.00 84 1019.6
20210925133323 64 88 0.0 1.0 0.00 0.00 0.00 84 1019.6
20210925133157 64 88 0.0 1.0 0.00 0.00 0.00 85 1019.6
20210925133026 64 88 0.0 0.0 0.00 0.00 0.00 85 1019.6
20210925132901 63 88 0.0 0.0 0.00 0.00 0.00 85 1019.5
20210925132736 63 88 0.0 0.0 0.00 0.00 0.00 86 1019.5
20210925132614 63 88 0.0 0.0 0.00 0.00 0.00 86 1019.5
20210925132452 63 88 0.0 0.0 0.00 0.00 0.00 86 1019.5
20210925132331 63 88 0.0 0.0 0.00 0.00 0.00 87 1019.5
20210925132159 62 88 0.0 0.0 0.00 0.00 0.00 87 1019.5
20210925132038 62 88 0.0 0.0 0.00 0.00 0.00 88 1019.5
20210925131918 62 88 0.0 0.0 0.00 0.00 0.00 88 1019.5
20210925131757 62 88 0.0 0.0 0.00 0.00 0.00 89 1019.5
20210925131632 62 88 0.0 0.0 0.00 0.00 0.00 89 1019.5
20210925131506 61 88 0.0 0.0 0.00 0.00 0.00 90 1019.5
20210925131345 61 88 0.0 0.0 0.00 0.00 0.00 90 1019.3
20210925131212 61 88 0.0 0.0 0.00 0.00 0.00 90 1019.3
20210925131054 61 88 0.0 0.0 0.00 0.00 0.00 91 1019.3
20210925130927 60 88 0.0 0.0 0.00 0.00 0.00 91 1019.3
20210925130805 60 88 0.0 0.0 0.00 0.00 0.00 91 1019.3
20210925130637 60 88 0.0 0.0 0.00 0.00 0.00 91 1019.3
20210925130457 60 88 0.0 0.0 0.00 0.00 0.00 91 1019.3
20210925130328 60 88 0.0 0.0 0.00 0.00 0.00 91 1019.3
20210925130202 60 88 0.0 0.0 0.00 0.00 0.00 91 1019.3
20210925130024 60 88 0.0 0.0 0.00 0.00 0.00 91 1019.3
20210925125847 59 88 0.0 0.0 0.00 0.00 0.00 91 1019.1
20210925125718 59 88 0.0 0.0 0.00 0.00 0.00 91 1019.1
20210925125558 59 88 0.0 0.0 0.00 0.00 0.00 91 1019.1
20210925125434 59 88 0.0 0.0 0.00 0.00 0.00 91 1019.1
20210925125314 59 88 0.0 0.0 0.00 0.00 0.00 91 1019.1
20210925125158 59 88 0.0 0.0 0.00 0.00 0.00 91 1019.1
20210925125033 59 88 0.0 0.0 0.00 0.00 0.00 90 1019.1
20210925124853 59 88 0.0 0.0 0.00 0.00 0.00 90 1019.1
20210925124731 59 88 0.0 0.0 0.00 0.00 0.00 90 1019.1
20210925124605 59 88 0.0 0.0 0.00 0.00 0.00 90 1019.1
20210925124432 59 88 0.0 0.0 0.00 0.00 0.00 90 1018.9
20210925124251 59 88 0.0 0.0 0.00 0.00 0.00 90 1018.9
20210925124121 59 88 0.0 0.0 0.00 0.00 0.00 90 1018.9
20210925123959 59 88 0.0 1.0 0.00 0.00 0.00 90 1018.9
20210925123839 59 88 0.0 1.0 0.00 0.00 0.00 90 1018.9
20210925123715 59 88 0.0 1.0 0.00 0.00 0.00 90 1018.9
20210925123554 59 88 0.0 1.0 0.00 0.00 0.00 90 1018.9
20210925123412 59 88 0.0 1.0 0.00 0.00 0.00 90 1018.9
20210925123251 59 88 0.0 1.0 0.00 0.00 0.00 90 1018.9
20210925123121 59 88 0.0 0.0 0.00 0.00 0.00 90 1018.9
20210925122957 59 88 0.0 0.0 0.00 0.00 0.00 90 1018.7
20210925122828 59 88 0.0 0.0 0.00 0.00 0.00 90 1018.7
20210925122644 59 88 0.0 0.0 0.00 0.00 0.00 90 1018.7
20210925122522 59 88 0.0 0.0 0.00 0.00 0.00 90 1018.7
20210925122353 59 88 0.0 0.0 0.00 0.00 0.00 90 1018.7
20210925122226 59 88 0.0 0.0 0.00 0.00 0.00 90 1018.7
20210925122045 59 88 0.0 0.0 0.00 0.00 0.00 90 1018.7
20210925121922 59 88 0.0 0.0 0.00 0.00 0.00 90 1018.7
20210925121752 59 88 0.0 0.0 0.00 0.00 0.00 90 1018.7
20210925121629 59 88 0.0 0.0 0.00 0.00 0.00 90 1018.7
20210925121454 59 88 0.0 0.0 0.00 0.00 0.00 90 1018.6
20210925121313 59 88 0.0 0.0 0.00 0.00 0.00 89 1018.6
20210925121159 59 88 0.0 0.0 0.00 0.00 0.00 89 1018.6
20210925121038 59 88 0.0 0.0 0.00 0.00 0.00 89 1018.6
20210925120916 59 88 0.0 0.0 0.00 0.00 0.00 89 1018.6
20210925120757 59 88 0.0 0.0 0.00 0.00 0.00 89 1018.6
20210925120631 59 88 0.0 0.0 0.00 0.00 0.00 89 1018.6
20210925120510 59 88 0.0 0.0 0.00 0.00 0.00 89 1018.6
20210925120352 59 88 0.0 0.0 0.00 0.00 0.00 89 1018.6
20210925120210 59 88 0.0 0.0 0.00 0.00 0.00 89 1018.6
20210925120041 59 88 0.0 0.0 0.00 0.00 0.00 89 1018.6
20210925115913 59 88 0.0 0.0 0.00 0.00 0.00 89 1018.6
20210925115748 59 88 0.0 0.0 0.00 0.00 0.00 89 1018.6
20210925115559 59 88 0.0 0.0 0.00 0.00 0.00 89 1018.6
20210925115435 59 88 0.0 0.0 0.00 0.00 0.00 89 1018.6
20210925115308 59 88 0.0 0.0 0.00 0.00 0.00 89 1018.6
20210925115151 59 88 0.0 0.0 0.00 0.00 0.00 89 1018.6
20210925115024 59 88 0.0 0.0 0.00 0.00 0.00 89 1018.6
20210925114844 59 88 0.0 0.0 0.00 0.00 0.00 89 1018.6
20210925114719 59 88 0.0 0.0 0.00 0.00 0.00 89 1018.6
20210925114555 59 88 0.0 0.0 0.00 0.00 0.00 89 1018.6
20210925114438 59 88 0.0 0.0 0.00 0.00 0.00 89 1018.3
20210925114311 59 88 0.0 0.0 0.00 0.00 0.00 89 1018.3
20210925114152 59 88 0.0 0.0 0.00 0.00 0.00 89 1018.3
20210925114014 59 88 0.0 0.0 0.00 0.00 0.00 89 1018.3
20210925113847 59 88 0.0 0.0 0.00 0.00 0.00 89 1018.3
20210925113718 59 88 0.0 0.0 0.00 0.00 0.00 89 1018.3
20210925113556 59 88 0.0 0.0 0.00 0.00 0.00 89 1018.3
20210925113434 59 88 0.0 0.0 0.00 0.00 0.00 89 1018.3
20210925113314 59 88 0.0 0.0 0.00 0.00 0.00 89 1018.3
20210925113137 59 88 0.0 0.0 0.00 0.00 0.00 89 1018.3
20210925113015 59 88 0.0 0.0 0.00 0.00 0.00 89 1018.3
20210925112848 59 88 0.0 0.0 0.00 0.00 0.00 89 1018.2
20210925112727 59 88 0.0 0.0 0.00 0.00 0.00 89 1018.2
20210925112606 59 88 0.0 0.0 0.00 0.00 0.00 89 1018.2
20210925112442 59 88 0.0 0.0 0.00 0.00 0.00 89 1018.2
20210925112320 59 88 0.0 0.0 0.00 0.00 0.00 89 1018.2
20210925112158 59 88 0.0 0.0 0.00 0.00 0.00 89 1018.2
20210925112026 59 88 0.0 0.0 0.00 0.00 0.00 89 1018.2
20210925111900 59 88 0.0 0.0 0.00 0.00 0.00 89 1018.2
20210925111732 59 88 0.0 0.0 0.00 0.00 0.00 89 1018.2
20210925111605 59 88 0.0 0.0 0.00 0.00 0.00 89 1018.2
20210925111432 59 88 0.0 0.0 0.00 0.00 0.00 89 1018.1
20210925111303 59 88 0.0 0.0 0.00 0.00 0.00 89 1018.1
20210925111149 59 88 0.0 0.0 0.00 0.00 0.00 89 1018.1
20210925111020 59 88 0.0 0.0 0.00 0.00 0.00 88 1018.1
20210925110849 59 88 0.0 0.0 0.00 0.00 0.00 88 1018.1
20210925110719 59 88 0.0 0.0 0.00 0.00 0.00 88 1018.1
20210925110601 59 88 0.0 0.0 0.00 0.00 0.00 88 1018.1
20210925110438 59 88 0.0 0.0 0.00 0.00 0.00 88 1018.1
20210925110318 59 88 0.0 0.0 0.00 0.00 0.00 88 1018.1
20210925110145 59 88 0.0 0.0 0.00 0.00 0.00 88 1018.1
20210925110006 59 88 0.0 0.0 0.00 0.00 0.00 88 1018.1
20210925105828 59 88 0.0 0.0 0.00 0.00 0.00 88 1018.1
20210925105709 59 88 0.0 0.0 0.00 0.00 0.00 88 1018.1
20210925105547 59 88 0.0 0.0 0.00 0.00 0.00 88 1018.1
20210925105423 59 88 0.0 0.0 0.00 0.00 0.00 88 1018.1
20210925105254 59 88 0.0 0.0 0.00 0.00 0.00 88 1018.1
20210925105132 59 88 0.0 0.0 0.00 0.00 0.00 88 1018.1
20210925105004 59 88 0.0 0.0 0.00 0.00 0.00 88 1018.1
20210925104830 59 88 0.0 0.0 0.00 0.00 0.00 88 1018.1
20210925104705 59 88 0.0 0.0 0.00 0.00 0.00 88 1018.1
20210925104538 59 88 0.0 0.0 0.00 0.00 0.00 88 1018.1
20210925104414 59 88 0.0 0.0 0.00 0.00 0.00 88 1018.0
20210925104248 59 88 0.0 0.0 0.00 0.00 0.00 88 1018.0
20210925104125 59 88 0.0 0.0 0.00 0.00 0.00 88 1018.0
20210925103947 59 88 0.0 0.0 0.00 0.00 0.00 88 1018.0
20210925103828 59 88 0.0 0.0 0.00 0.00 0.00 88 1018.0
20210925103711 59 88 0.0 0.0 0.00 0.00 0.00 88 1018.0
20210925103548 59 88 0.0 0.0 0.00 0.00 0.00 88 1018.0
20210925103428 59 88 0.0 0.0 0.00 0.00 0.00 88 1018.0
20210925103258 59 88 0.0 0.0 0.00 0.00 0.00 88 1018.0
20210925103128 59 88 0.0 0.0 0.00 0.00 0.00 88 1018.0
20210925103009 59 88 0.0 0.0 0.00 0.00 0.00 87 1018.0
20210925102849 59 88 0.0 0.0 0.00 0.00 0.00 87 1018.0
20210925102723 59 88 0.0 0.0 0.00 0.00 0.00 87 1018.0
20210925102605 60 88 0.0 0.0 0.00 0.00 0.00 87 1018.0
20210925102438 60 88 0.0 0.0 0.00 0.00 0.00 87 1018.0
20210925102313 60 88 0.0 0.0 0.00 0.00 0.00 87 1018.0
20210925102135 60 88 0.0 0.0 0.00 0.00 0.00 87 1018.0
20210925102014 60 88 0.0 0.0 0.00 0.00 0.00 87 1018.0
20210925101848 60 88 0.0 0.0 0.00 0.00 0.00 87 1018.0
20210925101726 60 88 0.0 0.0 0.00 0.00 0.00 87 1018.0
20210925101602 60 88 0.0 0.0 0.00 0.00 0.00 87 1018.0
20210925101442 60 88 0.0 0.0 0.00 0.00 0.00 87 1017.9
20210925101310 60 88 0.0 0.0 0.00 0.00 0.00 87 1017.9
20210925101148 60 88 0.0 0.0 0.00 0.00 0.00 87 1017.9
20210925101023 60 88 0.0 0.0 0.00 0.00 0.00 87 1017.9
20210925100902 60 88 0.0 0.0 0.00 0.00 0.00 87 1017.9
20210925100742 60 88 0.0 0.0 0.00 0.00 0.00 87 1017.9
20210925100618 60 88 0.0 0.0 0.00 0.00 0.00 87 1017.9
20210925100454 60 88 0.0 0.0 0.00 0.00 0.00 87 1017.9
20210925100310 60 88 0.0 0.0 0.00 0.00 0.00 87 1017.9
20210925100143 60 88 0.0 0.0 0.00 0.00 0.00 87 1017.9
20210925100006 60 88 0.0 0.0 0.00 0.00 0.00 87 1017.9
20210925095843 60 88 0.0 0.0 0.00 0.00 0.00 87 1017.8
20210925095720 60 88 0.0 0.0 0.00 0.00 0.00 87 1017.8
20210925095532 60 88 0.0 0.0 0.00 0.00 0.00 87 1017.8
20210925095409 60 88 0.0 0.0 0.00 0.00 0.00 87 1017.8
20210925095248 60 88 0.0 0.0 0.00 0.00 0.00 87 1017.8
20210925095130 60 88 0.0 0.0 0.00 0.00 0.00 87 1017.8
20210925095011 60 88 0.0 0.0 0.00 0.00 0.00 87 1017.8
20210925094849 60 88 0.0 0.0 0.00 0.00 0.00 87 1017.8
20210925094715 60 88 0.0 0.0 0.00 0.00 0.00 87 1017.8
20210925094552 60 88 0.0 0.0 0.00 0.00 0.00 87 1017.8
20210925094430 60 88 0.0 0.0 0.00 0.00 0.00 87 1017.6
20210925094305 60 88 0.0 0.0 0.00 0.00 0.00 87 1017.6
20210925094142 60 88 0.0 0.0 0.00 0.00 0.00 87 1017.6
20210925094017 60 88 0.0 0.0 0.00 0.00 0.00 87 1017.6
20210925093839 60 88 0.0 0.0 0.00 0.00 0.00 87 1017.6
20210925093717 60 88 0.0 0.0 0.00 0.00 0.00 87 1017.6
20210925093559 61 88 0.0 0.0 0.00 0.00 0.00 87 1017.6
20210925093433 60 88 0.0 0.0 0.00 0.00 0.00 87 1017.6
20210925093311 61 88 0.0 0.0 0.00 0.00 0.00 87 1017.6
20210925093151 61 88 0.0 0.0 0.00 0.00 0.00 87 1017.6
20210925093015 61 88 0.0 0.0 0.00 0.00 0.00 87 1017.6
20210925092848 61 88 0.0 0.0 0.00 0.00 0.00 87 1017.6
20210925092720 61 88 0.0 0.0 0.00 0.00 0.00 87 1017.6
20210925092558 61 88 0.0 0.0 0.00 0.00 0.00 86 1017.6
20210925092436 61 88 0.0 0.0 0.00 0.00 0.00 86 1017.6
20210925092309 61 88 0.0 0.0 0.00 0.00 0.00 86 1017.6
20210925092138 61 88 0.0 0.0 0.00 0.00 0.00 86 1017.6
20210925092018 61 88 0.0 0.0 0.00 0.00 0.00 86 1017.6
20210925091850 61 88 0.0 0.0 0.00 0.00 0.00 86 1017.6
20210925091731 61 88 0.0 0.0 0.00 0.00 0.00 86 1017.6
20210925091605 61 88 0.0 0.0 0.00 0.00 0.00 86 1017.6
20210925091436 61 88 0.0 0.0 0.00 0.00 0.00 86 1017.6
20210925091258 61 88 0.0 0.0 0.00 0.00 0.00 87 1017.6
20210925091131 61 88 0.0 0.0 0.00 0.00 0.00 86 1017.6
20210925091004 61 88 0.0 0.0 0.00 0.00 0.00 87 1017.6
20210925090844 61 88 0.0 0.0 0.00 0.00 0.00 87 1017.6
20210925090725 61 88 0.0 0.0 0.00 0.00 0.00 87 1017.6
20210925090600 61 88 0.0 0.0 0.00 0.00 0.00 87 1017.6
20210925090444 61 88 0.0 0.0 0.00 0.00 0.00 87 1017.6
20210925090307 61 88 0.0 0.0 0.00 0.00 0.00 87 1017.6
20210925090155 61 88 0.0 0.0 0.00 0.00 0.00 87 1017.6
20210925090017 61 88 0.0 0.0 0.00 0.00 0.00 87 1017.6
20210925085859 61 88 0.0 0.0 0.00 0.00 0.00 87 1017.9
20210925085737 61 88 0.0 0.0 0.00 0.00 0.00 87 1017.9
20210925085615 61 88 0.0 0.0 0.00 0.00 0.00 87 1017.9
20210925085436 61 88 0.0 0.0 0.00 0.00 0.00 87 1017.9
20210925085313 61 88 0.0 0.0 0.00 0.00 0.00 87 1017.9
20210925085136 61 88 0.0 0.0 0.00 0.00 0.00 87 1017.9
20210925085017 61 88 0.0 0.0 0.00 0.00 0.00 87 1017.9
20210925084852 61 88 0.0 0.0 0.00 0.00 0.00 87 1017.9
20210925084714 61 88 0.0 0.0 0.00 0.00 0.00 87 1017.9
20210925084551 61 88 0.0 0.0 0.00 0.00 0.00 87 1017.9
20210925084430 61 88 0.0 0.0 0.00 0.00 0.00 87 1017.8
20210925084253 61 88 0.0 0.0 0.00 0.00 0.00 87 1017.8
20210925084130 61 88 0.0 0.0 0.00 0.00 0.00 87 1017.8
20210925084014 61 88 0.0 0.0 0.00 0.00 0.00 87 1017.8
20210925083838 62 88 0.0 0.0 0.00 0.00 0.00 87 1017.8
20210925083713 62 88 0.0 0.0 0.00 0.00 0.00 87 1017.8
20210925083552 62 88 0.0 0.0 0.00 0.00 0.00 87 1017.8
20210925083426 62 88 0.0 0.0 0.00 0.00 0.00 87 1017.8
20210925083308 62 88 0.0 0.0 0.00 0.00 0.00 87 1017.8
20210925083146 62 88 0.0 0.0 0.00 0.00 0.00 87 1017.8
20210925083000 62 88 0.0 0.0 0.00 0.00 0.00 87 1017.7
20210925082834 62 88 0.0 0.0 0.00 0.00 0.00 87 1017.7
20210925082712 62 88 0.0 0.0 0.00 0.00 0.00 87 1017.7
20210925082550 62 88 0.0 0.0 0.00 0.00 0.00 87 1017.7
20210925082425 62 88 0.0 0.0 0.00 0.00 0.00 86 1017.7
20210925082307 62 88 0.0 0.0 0.00 0.00 0.00 86 1017.7
20210925082129 62 88 0.0 0.0 0.00 0.00 0.00 86 1017.7
20210925082004 62 88 0.0 0.0 0.00 0.00 0.00 86 1017.7
20210925081842 62 88 0.0 0.0 0.00 0.00 0.00 86 1017.7
20210925081719 62 88 0.0 0.0 0.00 0.00 0.00 86 1017.7
20210925081604 62 88 0.0 0.0 0.00 0.00 0.00 86 1017.7
20210925081450 62 88 0.0 0.0 0.00 0.00 0.00 86 1017.9
20210925081331 62 88 0.0 0.0 0.00 0.00 0.00 86 1017.9
20210925081205 62 88 0.0 0.0 0.00 0.00 0.00 86 1017.9
20210925081044 62 88 0.0 0.0 0.00 0.00 0.00 86 1017.9
20210925080912 62 88 0.0 0.0 0.00 0.00 0.00 86 1017.9
20210925080745 62 88 0.0 0.0 0.00 0.00 0.00 86 1017.9
20210925080623 62 88 0.0 0.0 0.00 0.00 0.00 86 1017.9
20210925080500 62 88 0.0 0.0 0.00 0.00 0.00 86 1017.9
20210925080333 62 88 0.0 0.0 0.00 0.00 0.00 86 1017.9
20210925080148 62 88 0.0 0.0 0.00 0.00 0.00 86 1017.9
20210925080017 62 88 0.0 0.0 0.00 0.00 0.00 86 1017.9
20210925075854 62 88 0.0 0.0 0.00 0.00 0.00 86 1018.0
20210925075738 62 88 0.0 0.0 0.00 0.00 0.00 86 1018.0
20210925075613 62 88 0.0 0.0 0.00 0.00 0.00 86 1018.0
20210925075447 62 88 0.0 0.0 0.00 0.00 0.00 86 1018.0
20210925075309 62 88 0.0 0.0 0.00 0.00 0.00 86 1018.0
20210925075145 62 88 0.0 0.0 0.00 0.00 0.00 85 1018.0
20210925075027 62 88 0.0 0.0 0.00 0.00 0.00 85 1018.0
20210925074904 62 88 0.0 0.0 0.00 0.00 0.00 85 1018.0
20210925074747 62 88 0.0 0.0 0.00 0.00 0.00 85 1018.0
20210925074631 62 88 0.0 0.0 0.00 0.00 0.00 85 1018.0
20210925074508 62 88 0.0 0.0 0.00 0.00 0.00 85 1018.0
20210925074328 62 88 0.0 0.0 0.00 0.00 0.00 84 1018.0
20210925074204 62 88 0.0 0.0 0.00 0.00 0.00 84 1018.0
20210925074042 62 88 0.0 0.0 0.00 0.00 0.00 84 1018.0
20210925073908 63 88 0.0 0.0 0.00 0.00 0.00 84 1018.0
20210925073744 63 88 0.0 0.0 0.00 0.00 0.00 84 1018.0
20210925073618 63 88 0.0 0.0 0.00 0.00 0.00 84 1018.0
20210925073502 63 88 0.0 0.0 0.00 0.00 0.00 84 1018.0
20210925073344 63 88 0.0 0.0 0.00 0.00 0.00 84 1018.0
20210925073225 63 88 0.0 0.0 0.00 0.00 0.00 84 1018.0
20210925073038 63 88 0.0 0.0 0.00 0.00 0.00 84 1018.0
20210925072915 63 88 0.0 0.0 0.00 0.00 0.00 84 1017.8
20210925072755 63 88 0.0 0.0 0.00 0.00 0.00 84 1017.8
20210925072630 63 88 0.0 0.0 0.00 0.00 0.00 84 1017.8
20210925072442 63 88 0.0 0.0 0.00 0.00 0.00 83 1017.8
20210925072321 63 88 0.0 0.0 0.00 0.00 0.00 83 1017.8
20210925072201 63 88 0.0 0.0 0.00 0.00 0.00 83 1017.8
20210925072036 63 88 0.0 0.0 0.00 0.00 0.00 83 1017.8
20210925071909 63 88 0.0 0.0 0.00 0.00 0.00 83 1017.8
20210925071726 63 88 0.0 0.0 0.00 0.00 0.00 83 1017.8
20210925071604 63 88 0.0 0.0 0.00 0.00 0.00 83 1017.8
20210925071440 63 88 0.0 0.0 0.00 0.00 0.00 83 1017.7
20210925071319 63 88 0.0 0.0 0.00 0.00 0.00 83 1017.7
20210925071156 63 88 0.0 0.0 0.00 0.00 0.00 83 1017.7
20210925071038 63 88 0.0 0.0 0.00 0.00 0.00 83 1017.7
20210925070913 63 88 0.0 0.0 0.00 0.00 0.00 82 1017.7
20210925070745 63 88 0.0 0.0 0.00 0.00 0.00 82 1017.7
20210925070617 63 88 0.0 0.0 0.00 0.00 0.00 82 1017.7
20210925070455 63 88 0.0 0.0 0.00 0.00 0.00 82 1017.7
20210925070338 64 88 0.0 0.0 0.00 0.00 0.00 81 1017.7
20210925070201 64 88 0.0 0.0 0.00 0.00 0.00 81 1017.7
20210925070028 64 88 0.0 0.0 0.00 0.00 0.00 81 1017.7
20210925065940 64 88 0.0 0.0 0.00 0.00 0.00 81 1017.7
20210925065847 64 88 0.0 0.0 0.00 0.00 0.00 81 1017.7
20210925065721 64 88 0.0 0.0 0.00 0.00 0.00 81 1017.7
20210925065639 64 88 0.0 0.0 0.00 0.00 0.00 81 1017.7
20210925065546 64 88 0.0 0.0 0.00 0.00 0.00 81 1017.7
20210925065423 64 88 0.0 0.0 0.00 0.00 0.00 80 1017.7
20210925065337 64 88 0.0 0.0 0.00 0.00 0.00 80 1017.7
20210925065244 64 88 0.0 0.0 0.00 0.00 0.00 80 1017.7
20210925065121 64 88 0.0 0.0 0.00 0.00 0.00 80 1017.7
20210925065025 64 88 0.0 0.0 0.00 0.00 0.00 80 1017.7
20210925064952 64 88 0.0 0.0 0.00 0.00 0.00 80 1017.7
20210925064826 64 88 0.0 0.0 0.00 0.00 0.00 80 1017.7
20210925064723 64 88 0.0 0.0 0.00 0.00 0.00 79 1017.7
20210925064650 64 88 0.0 0.0 0.00 0.00 0.00 79 1017.7
20210925064524 64 88 0.0 0.0 0.00 0.00 0.00 79 1017.7
20210925064420 64 88 0.0 0.0 0.00 0.00 0.00 79 1017.6
20210925064334 64 88 0.0 0.0 0.00 0.00 0.00 79 1017.6
20210925064234 64 88 0.0 0.0 0.00 0.00 0.00 79 1017.6
20210925064131 64 88 0.0 0.0 0.00 0.00 0.00 79 1017.6
20210925064041 64 88 0.0 0.0 0.00 0.00 0.00 79 1017.6
20210925063935 64 88 0.0 0.0 0.00 0.00 0.00 79 1017.6
20210925063829 64 88 0.0 0.0 0.00 0.00 0.00 79 1017.6
20210925063740 64 88 0.0 0.0 0.00 0.00 0.00 79 1017.6
20210925063634 64 88 0.0 0.0 0.00 0.00 0.00 78 1017.6
20210925063528 64 88 0.0 0.0 0.00 0.00 0.00 78 1017.6
20210925063435 64 88 0.0 0.0 0.00 0.00 0.00 78 1017.6
20210925063329 64 88 0.0 0.0 0.00 0.00 0.00 78 1017.6
20210925063223 64 88 0.0 0.0 0.00 0.00 0.00 78 1017.6
20210925063130 64 88 0.0 0.0 0.00 0.00 0.00 78 1017.6
20210925063034 64 88 0.0 0.0 0.00 0.00 0.00 78 1017.6
20210925062941 64 88 0.0 0.0 0.00 0.00 0.00 78 1017.5
20210925062837 64 88 0.0 0.0 0.00 0.00 0.00 78 1017.5
20210925062734 64 88 0.0 0.0 0.00 0.00 0.00 77 1017.5
20210925062641 64 88 0.0 0.0 0.00 0.00 0.00 77 1017.5
20210925062538 64 88 0.0 0.0 0.00 0.00 0.00 77 1017.5
20210925062422 64 88 0.0 0.0 0.00 0.00 0.00 77 1017.5
20210925062349 64 88 0.0 0.0 0.00 0.00 0.00 77 1017.5
20210925062223 65 88 0.0 0.0 0.00 0.00 0.00 77 1017.5
20210925062137 65 88 0.0 0.0 0.00 0.00 0.00 77 1017.5
20210925062044 65 88 0.0 0.0 0.00 0.00 0.00 77 1017.5
20210925061921 65 88 0.0 0.0 0.00 0.00 0.00 77 1017.5
20210925061835 65 88 0.0 0.0 0.00 0.00 0.00 77 1017.5
20210925061727 65 88 0.0 0.0 0.00 0.00 0.00 77 1017.5
20210925061640 65 88 0.0 0.0 0.00 0.00 0.00 76 1017.5
20210925061547 65 88 0.0 0.0 0.00 0.00 0.00 76 1017.5
20210925061420 65 88 0.0 0.0 0.00 0.00 0.00 76 1017.5
20210925061334 65 88 0.0 0.0 0.00 0.00 0.00 76 1017.5
20210925061244 65 88 0.0 0.0 0.00 0.00 0.00 76 1017.5
20210925061122 65 88 0.0 0.0 0.00 0.00 0.00 76 1017.5
20210925061036 65 88 0.0 0.0 0.00 0.00 0.00 76 1017.5
20210925060943 65 88 0.0 0.0 0.00 0.00 0.00 76 1017.5
20210925060837 65 88 0.0 0.0 0.00 0.00 0.00 76 1017.5
20210925060734 65 88 0.0 0.0 0.00 0.00 0.00 76 1017.5
20210925060641 65 88 0.0 0.0 0.00 0.00 0.00 75 1017.5
20210925060535 65 88 0.0 0.0 0.00 0.00 0.00 75 1017.5
20210925060447 65 88 0.0 0.0 0.00 0.00 0.00 75 1017.5
20210925060343 65 88 0.0 0.0 0.00 0.00 0.00 75 1017.5
20210925060219 65 88 0.0 0.0 0.00 0.00 0.00 75 1017.5
20210925060159 65 88 0.0 0.0 0.00 0.00 0.00 75 1017.5
20210925060022 65 88 0.0 0.0 0.00 0.00 0.00 75 1017.5
20210925055935 66 88 0.0 0.0 0.00 0.00 0.00 74 1017.5
20210925055849 66 88 0.0 0.0 0.00 0.00 0.00 74 1017.5
20210925055725 66 88 0.0 0.0 0.00 0.00 0.00 74 1017.5
20210925055625 66 88 0.0 0.0 0.00 0.00 0.00 74 1017.5
20210925055533 66 88 0.0 0.0 0.00 0.00 0.00 74 1017.5
20210925055429 66 88 0.0 0.0 0.00 0.00 0.00 74 1017.5
20210925055326 66 88 0.0 0.0 0.00 0.00 0.00 74 1017.5
20210925055237 66 88 0.0 0.0 0.00 0.00 0.00 74 1017.5
20210925055133 66 88 0.0 0.0 0.00 0.00 0.00 74 1017.5
20210925055033 66 88 0.0 0.0 0.00 0.00 0.00 74 1017.5
20210925054940 66 88 0.0 0.0 0.00 0.00 0.00 74 1017.5
20210925054833 66 88 0.0 0.0 0.00 0.00 0.00 74 1017.5
20210925054734 66 88 0.0 0.0 0.00 0.00 0.00 74 1017.5
20210925054640 66 88 0.0 0.0 0.00 0.00 0.00 74 1017.5
20210925054519 66 88 0.0 0.0 0.00 0.00 0.00 73 1017.5
20210925054433 66 88 0.0 0.0 0.00 0.00 0.00 73 1017.2
20210925054339 66 88 0.0 0.0 0.00 0.00 0.00 73 1017.2
20210925054234 66 88 0.0 0.0 0.00 0.00 0.00 73 1017.2
20210925054128 66 88 0.0 0.0 0.00 0.00 0.00 73 1017.2
20210925054034 66 88 0.0 0.0 0.00 0.00 0.00 73 1017.2
20210925053933 66 88 0.0 0.0 0.00 0.00 0.00 73 1017.2
20210925053839 66 88 0.0 0.0 0.00 0.00 0.00 73 1017.2
20210925053733 66 88 0.0 0.0 0.00 0.00 0.00 73 1017.2
20210925053630 66 88 0.0 0.0 0.00 0.00 0.00 73 1017.2
20210925053539 66 88 0.0 0.0 0.00 0.00 0.00 73 1017.2
20210925053437 66 88 0.0 0.0 0.00 0.00 0.00 73 1017.2
20210925053331 66 88 0.0 0.0 0.00 0.00 0.00 73 1017.2
20210925053241 66 88 0.0 0.0 0.00 0.00 0.00 73 1017.2
20210925053118 66 88 0.0 0.0 0.00 0.00 0.00 72 1017.2
20210925053032 67 88 0.0 0.0 0.00 0.00 0.00 72 1017.2
20210925052943 67 88 0.0 0.0 0.00 0.00 0.00 72 1017.4
20210925052911 67 88 0.0 0.0 0.00 0.00 0.00 72 1017.4
20210925052722 67 88 0.0 0.0 0.00 0.00 0.00 72 1017.4
20210925052622 67 88 0.0 0.0 0.00 0.00 0.00 72 1017.4
20210925052536 67 88 0.0 0.0 0.00 0.00 0.00 72 1017.4
20210925052433 67 88 0.0 0.0 0.00 0.00 0.00 72 1017.4
20210925052333 67 88 0.0 0.0 0.00 0.00 0.00 72 1017.4
20210925052243 67 88 0.0 0.0 0.00 0.00 0.00 72 1017.4
20210925052120 67 88 0.0 0.0 0.00 0.00 0.00 72 1017.4
20210925052037 67 88 0.0 0.0 0.00 0.00 0.00 72 1017.4
20210925051948 67 88 0.0 0.0 0.00 0.00 0.00 72 1017.4
20210925051825 67 88 0.0 0.0 0.00 0.00 0.00 72 1017.4
20210925051738 67 88 0.0 0.0 0.00 0.00 0.00 72 1017.4
20210925051647 67 88 0.0 0.0 0.00 0.00 0.00 72 1017.4
20210925051526 67 88 0.0 0.0 0.00 0.00 0.00 72 1017.4
20210925051425 67 88 0.0 0.0 0.00 0.00 0.00 72 1017.4
20210925051339 67 88 0.0 0.0 0.00 0.00 0.00 72 1017.4
20210925051233 67 88 0.0 0.0 0.00 0.00 0.00 72 1017.4
20210925051127 67 88 0.0 0.0 0.00 0.00 0.00 72 1017.4
20210925051037 67 88 0.0 0.0 0.00 0.00 0.00 72 1017.4
20210925050931 67 88 0.0 0.0 0.00 0.00 0.00 72 1017.4
20210925050834 67 88 0.0 0.0 0.00 0.00 0.00 72 1017.4
20210925050741 67 88 0.0 0.0 0.00 0.00 0.00 71 1017.4
20210925050619 67 88 0.0 0.0 0.00 0.00 0.00 71 1017.4
20210925050536 67 88 0.0 0.0 0.00 0.00 0.00 71 1017.4
20210925050446 67 88 0.0 0.0 0.00 0.00 0.00 71 1017.4
20210925050320 67 88 0.0 0.0 0.00 0.00 0.00 71 1017.4
20210925050219 67 88 0.0 0.0 0.00 0.00 0.00 71 1017.4
20210925050140 67 88 0.0 0.0 0.00 0.00 0.00 71 1017.4
20210925050030 67 88 0.0 0.0 0.00 0.00 0.00 71 1017.4
20210925045905 67 88 0.0 0.0 0.00 0.00 0.00 71 1017.4
20210925045738 67 88 0.0 0.0 0.00 0.00 0.00 71 1017.4
20210925045600 67 88 0.0 0.0 0.00 0.00 0.00 70 1017.4
20210925045435 68 88 0.0 0.0 0.00 0.00 0.00 70 1017.4
20210925045312 68 88 0.0 0.0 0.00 0.00 0.00 70 1017.4
20210925045149 68 88 0.0 0.0 0.00 0.00 0.00 70 1017.4
20210925045029 68 88 0.0 0.0 0.00 0.00 0.00 70 1017.4
20210925044912 68 88 0.0 0.0 0.00 0.00 0.00 70 1017.4
20210925044738 68 88 0.0 0.0 0.00 0.00 0.00 70 1017.4
20210925044616 68 88 0.0 0.0 0.00 0.00 0.00 70 1017.4
20210925044450 68 88 0.0 0.0 0.00 0.00 0.00 70 1017.3
20210925044328 68 88 0.0 0.0 0.00 0.00 0.00 70 1017.3
20210925044208 68 88 0.0 0.0 0.00 0.00 0.00 70 1017.3
20210925044043 68 88 0.0 0.0 0.00 0.00 0.00 70 1017.3
20210925043929 68 88 0.0 0.0 0.00 0.00 0.00 70 1017.3
20210925043752 68 88 0.0 0.0 0.00 0.00 0.00 69 1017.3
20210925043629 68 88 0.0 0.0 0.00 0.00 0.00 69 1017.3
20210925043501 68 88 0.0 0.0 0.00 0.00 0.00 69 1017.3
20210925043339 68 88 0.0 0.0 0.00 0.00 0.00 69 1017.3
20210925043218 69 88 0.0 0.0 0.00 0.00 0.00 69 1017.3
20210925043055 69 88 0.0 0.0 0.00 0.00 0.00 68 1017.3
20210925042910 69 88 0.0 0.0 0.00 0.00 0.00 68 1017.5
20210925042749 69 88 0.0 0.0 0.00 0.00 0.00 68 1017.5
20210925042626 69 88 0.0 0.0 0.00 0.00 0.00 68 1017.5
20210925042459 69 88 0.0 0.0 0.00 0.00 0.00 68 1017.5
20210925042323 69 88 0.0 0.0 0.00 0.00 0.00 67 1017.5
20210925042200 69 88 0.0 0.0 0.00 0.00 0.00 67 1017.5
20210925042036 69 88 0.0 0.0 0.00 0.00 0.00 67 1017.5
20210925041912 69 88 0.0 0.0 0.00 0.00 0.00 68 1017.5
20210925041747 69 88 0.0 0.0 0.00 0.00 0.00 68 1017.5
20210925041623 69 88 0.0 0.0 0.00 0.00 0.00 67 1017.5
20210925041450 69 88 0.0 0.0 0.00 0.00 0.00 67 1017.5
20210925041332 69 88 0.0 0.0 0.00 0.00 0.00 67 1017.5
20210925041200 69 88 0.0 0.0 0.00 0.00 0.00 67 1017.5
20210925041043 69 88 0.0 0.0 0.00 0.00 0.00 67 1017.5
20210925040917 69 88 0.0 0.0 0.00 0.00 0.00 67 1017.5
20210925040753 70 88 0.0 0.0 0.00 0.00 0.00 67 1017.5
20210925040637 70 88 0.0 0.0 0.00 0.00 0.00 66 1017.5
20210925040500 70 88 0.0 0.0 0.00 0.00 0.00 66 1017.5
20210925040334 70 88 0.0 0.0 0.00 0.00 0.00 66 1017.5
20210925040204 70 88 0.0 0.0 0.00 0.00 0.00 66 1017.5
20210925040031 70 88 0.0 0.0 0.00 0.00 0.00 66 1017.5
20210925035915 70 88 0.0 0.0 0.00 0.00 0.00 66 1017.4
20210925035752 70 88 0.0 0.0 0.00 0.00 0.00 66 1017.4
20210925035616 70 88 0.0 0.0 0.00 0.00 0.00 65 1017.4
20210925035453 70 88 0.0 0.0 0.00 0.00 0.00 65 1017.4
20210925035327 70 88 0.0 0.0 0.00 0.00 0.00 65 1017.4
20210925035201 70 88 0.0 0.0 0.00 0.00 0.00 64 1017.4
20210925035039 71 88 0.0 0.0 0.00 0.00 0.00 64 1017.4
20210925034918 71 88 0.0 0.0 0.00 0.00 0.00 64 1017.4
20210925034758 71 88 0.0 0.0 0.00 0.00 0.00 64 1017.4
20210925034627 71 88 0.0 0.0 0.00 0.00 0.00 64 1017.4
20210925034510 71 88 0.0 0.0 0.00 0.00 0.00 64 1017.4
20210925034351 71 88 0.0 0.0 0.00 0.00 0.00 64 1017.4
20210925034232 71 88 0.0 0.0 0.00 0.00 0.00 63 1017.4
20210925034059 71 88 0.0 0.0 0.00 0.00 0.00 63 1017.4
20210925033936 71 88 0.0 0.0 0.00 0.00 0.00 63 1017.4
20210925033818 71 88 0.0 0.0 0.00 0.00 0.00 63 1017.4
20210925033639 71 88 0.0 0.0 0.00 0.00 0.00 63 1017.4
20210925033512 71 88 0.0 0.0 0.00 0.00 0.00 63 1017.4
20210925033347 71 88 0.0 0.0 0.00 0.00 0.00 63 1017.4
20210925033223 71 88 0.0 0.0 0.00 0.00 0.00 62 1017.4
20210925033059 72 88 0.0 0.0 0.00 0.00 0.00 62 1017.4
20210925032920 72 88 0.0 0.0 0.00 0.00 0.00 61 1017.3
20210925032754 72 88 0.0 0.0 0.00 0.00 0.00 61 1017.3
20210925032633 72 88 0.0 1.0 0.00 0.00 0.00 61 1017.3
20210925032511 72 88 0.0 1.0 0.00 0.00 0.00 61 1017.3
20210925032344 72 88 0.0 1.0 0.00 0.00 0.00 61 1017.3
20210925032222 72 88 0.0 1.0 0.00 0.00 0.00 61 1017.3
20210925032049 72 88 0.0 1.0 0.00 0.00 0.00 61 1017.3
20210925031923 72 88 0.0 1.0 0.00 0.00 0.00 61 1017.3
20210925031752 73 88 0.0 0.0 0.00 0.00 0.00 61 1017.3
20210925031622 73 88 0.0 0.0 0.00 0.00 0.00 61 1017.3
20210925031506 73 88 0.0 0.0 0.00 0.00 0.00 60 1017.3
20210925031344 73 88 0.0 0.0 0.00 0.00 0.00 60 1017.1
20210925031207 73 88 0.0 1.0 0.00 0.00 0.00 61 1017.1
20210925031045 73 88 0.0 1.0 0.00 0.00 0.00 61 1017.1
20210925030922 73 88 0.0 1.0 0.00 0.00 0.00 59 1017.1
20210925030756 73 88 0.0 1.0 0.00 0.00 0.00 60 1017.1
20210925030621 73 88 0.0 1.0 0.00 0.00 0.00 60 1017.1
20210925030502 73 88 0.0 1.0 0.00 0.00 0.00 59 1017.1
20210925030338 73 88 0.0 1.0 0.00 0.00 0.00 59 1017.1
20210925030208 73 88 0.0 1.0 0.00 0.00 0.00 59 1017.1
20210925030025 73 88 0.0 1.0 0.00 0.00 0.00 59 1017.1
20210925025845 73 88 0.0 1.0 0.00 0.00 0.00 58 1017.1
20210925025724 73 88 0.0 1.0 0.00 0.00 0.00 58 1017.1
20210925025556 73 88 0.0 1.0 0.00 0.00 0.00 58 1017.1
20210925025432 73 88 0.0 1.0 0.00 0.00 0.00 58 1017.1
20210925025309 73 88 0.0 1.0 0.00 0.00 0.00 58 1017.1
20210925025131 74 88 0.0 1.0 0.00 0.00 0.00 58 1017.1
20210925025007 74 88 0.0 1.0 0.00 0.00 0.00 57 1017.1
20210925024838 74 88 0.0 1.0 0.00 0.00 0.00 57 1017.1
20210925024708 74 87 0.0 1.0 0.00 0.00 0.00 57 1017.1
20210925024551 74 87 0.0 1.0 0.00 0.00 0.00 57 1017.1
20210925024412 74 87 0.0 1.0 0.00 0.00 0.00 57 1016.9
20210925024244 74 87 0.0 1.0 0.00 0.00 0.00 57 1016.9
20210925024121 74 87 0.0 0.0 0.00 0.00 0.00 57 1016.9
20210925024003 74 87 0.0 0.0 0.00 0.00 0.00 56 1016.9
20210925023842 74 87 0.0 0.0 0.00 0.00 0.00 56 1016.9
20210925023702 74 87 0.0 0.0 0.00 0.00 0.00 57 1016.9
20210925023541 74 87 0.0 1.0 0.00 0.00 0.00 56 1016.9
20210925023414 74 87 0.0 1.0 0.00 0.00 0.00 56 1016.9
20210925023248 74 87 0.0 1.0 0.00 0.00 0.00 56 1016.9
20210925023125 74 87 0.0 1.0 0.00 0.00 0.00 57 1016.9
20210925022945 74 87 0.0 1.0 0.00 0.00 0.00 56 1016.6
20210925022822 74 87 0.0 1.0 0.00 0.00 0.00 56 1016.6
20210925022656 74 88 0.0 0.0 0.00 0.00 0.00 56 1016.6
20210925022538 74 88 0.0 0.0 0.00 0.00 0.00 55 1016.6
20210925022412 74 88 0.0 0.0 0.00 0.00 0.00 55 1016.6
20210925022255 74 88 0.0 0.0 0.00 0.00 0.00 56 1016.6
20210925022137 74 88 0.0 0.0 0.00 0.00 0.00 54 1016.6
20210925022019 74 88 0.0 1.0 0.00 0.00 0.00 55 1016.6
20210925021840 75 88 0.0 1.0 0.00 0.00 0.00 54 1016.6
20210925021711 75 88 0.0 1.0 0.00 0.00 0.00 54 1016.6
20210925021555 75 88 0.0 1.0 0.00 0.00 0.00 54 1016.6
20210925021429 75 88 0.0 1.0 0.00 0.00 0.00 54 1016.5
20210925021304 75 88 0.0 1.0 0.00 0.00 0.00 53 1016.5
20210925021147 75 88 0.0 1.0 0.00 0.00 0.00 53 1016.5
20210925021032 75 88 0.0 1.0 0.00 0.00 0.00 53 1016.5
20210925020851 75 88 0.0 1.0 0.00 0.00 0.00 52 1016.5
20210925020728 75 88 0.0 1.0 0.00 0.00 0.00 52 1016.5
20210925020608 75 88 0.0 1.0 0.00 0.00 0.00 52 1016.5
20210925020433 75 88 0.0 1.0 0.00 0.00 0.00 53 1016.5
20210925020316 75 88 0.0 1.0 0.00 0.00 0.00 52 1016.5
20210925020200 75 88 0.0 1.0 0.00 0.00 0.00 52 1016.5
20210925020016 75 88 0.0 1.0 0.00 0.00 0.00 52 1016.5
20210925015858 75 88 0.0 1.0 0.00 0.00 0.00 52 1016.5
20210925015733 75 88 0.0 1.0 0.00 0.00 0.00 53 1016.5
20210925015612 75 88 0.0 1.0 0.00 0.00 0.00 52 1016.5
20210925015450 75 88 0.0 1.0 0.00 0.00 0.00 53 1016.5
20210925015319 75 88 0.0 0.0 0.00 0.00 0.00 53 1016.5
20210925015137 75 88 0.0 0.0 0.00 0.00 0.00 52 1016.5
20210925015006 75 88 0.0 0.0 0.00 0.00 0.00 53 1016.5
20210925014841 75 88 0.0 0.0 0.00 0.00 0.00 53 1016.5
20210925014723 75 88 0.0 0.0 0.00 0.00 0.00 54 1016.5
20210925014538 75 88 0.0 0.0 0.00 0.00 0.00 54 1016.5
20210925014411 75 88 0.0 0.0 0.00 0.00 0.00 53 1016.2
20210925014249 75 88 0.0 0.0 0.00 0.00 0.00 53 1016.2
20210925014132 75 88 0.0 0.0 0.00 0.00 0.00 53 1016.2
20210925014003 75 88 0.0 0.0 0.00 0.00 0.00 53 1016.2
20210925013848 75 88 0.0 0.0 0.00 0.00 0.00 53 1016.2
20210925013702 75 88 0.0 0.0 0.00 0.00 0.00 52 1016.2
20210925013541 75 88 0.0 1.0 0.00 0.00 0.00 52 1016.2
20210925013420 75 88 0.0 1.0 0.00 0.00 0.00 53 1016.2
20210925013253 75 88 0.0 1.0 0.00 0.00 0.00 52 1016.2
20210925013127 76 88 0.0 1.0 0.00 0.00 0.00 52 1016.2
20210925013002 76 88 0.0 1.0 0.00 0.00 0.00 52 1016.1
20210925012851 76 88 0.0 1.0 0.00 0.00 0.00 52 1016.1
20210925012715 76 88 0.0 0.0 0.00 0.00 0.00 52 1016.1
20210925012556 76 88 0.0 0.0 0.00 0.00 0.00 52 1016.1
20210925012432 76 88 0.0 0.0 0.00 0.00 0.00 51 1016.1
20210925012305 76 88 0.0 0.0 0.00 0.00 0.00 51 1016.1
20210925012137 76 88 0.0 0.0 0.00 0.00 0.00 51 1016.1
20210925012016 76 88 0.0 0.0 0.00 0.00 0.00 50 1016.1
20210925011859 77 88 0.0 0.0 0.00 0.00 0.00 50 1016.1
20210925011723 77 88 0.0 0.0 0.00 0.00 0.00 51 1016.1
20210925011556 77 88 0.0 0.0 0.00 0.00 0.00 51 1016.1
20210925011440 77 88 0.0 0.0 0.00 0.00 0.00 50 1016.0
20210925011314 77 88 0.0 0.0 0.00 0.00 0.00 50 1016.0
20210925011149 77 88 0.0 1.0 0.00 0.00 0.00 49 1016.0
20210925011008 77 88 0.0 1.0 0.00 0.00 0.00 49 1016.0
20210925010847 77 88 0.0 1.0 0.00 0.00 0.00 49 1016.0
20210925010712 77 88 0.0 1.0 0.00 0.00 0.00 49 1016.0
20210925010549 77 88 0.0 1.0 0.00 0.00 0.00 49 1016.0
20210925010428 77 88 0.0 1.0 0.00 0.00 0.00 49 1016.0
20210925010301 77 88 0.0 0.0 0.00 0.00 0.00 49 1016.0
20210925010104 77 88 0.0 0.0 0.00 0.00 0.00 48 1016.0
20210925005940 77 88 0.0 0.0 0.00 0.00 0.00 48 1016.1
20210925005811 77 88 0.0 0.0 0.00 0.00 0.00 48 1016.1
20210925005649 77 88 0.0 0.0 0.00 0.00 0.00 49 1016.1
20210925005504 77 88 0.0 0.0 0.00 0.00 0.00 48 1016.1
20210925005340 77 88 0.0 0.0 0.00 0.00 0.00 49 1016.1
20210925005219 77 88 0.0 0.0 0.00 0.00 0.00 49 1016.1
20210925005045 78 88 0.0 0.0 0.00 0.00 0.00 49 1016.1
20210925004924 78 88 0.0 0.0 0.00 0.00 0.00 49 1016.1
20210925004747 78 88 0.0 0.0 0.00 0.00 0.00 48 1016.1
20210925004618 78 88 0.0 0.0 0.00 0.00 0.00 48 1016.1
20210925004452 78 88 0.0 0.0 0.00 0.00 0.00 47 1016.0
20210925004335 78 88 0.0 0.0 0.00 0.00 0.00 47 1016.0
20210925004209 78 88 0.0 0.0 0.00 0.00 0.00 47 1016.0
20210925004030 78 88 0.0 0.0 0.00 0.00 0.00 46 1016.0
20210925003912 78 88 0.0 0.0 0.00 0.00 0.00 46 1016.0
20210925003745 78 88 0.0 0.0 0.00 0.00 0.00 45 1016.0
20210925003617 79 88 0.0 0.0 0.00 0.00 0.00 45 1016.0
20210925003455 79 88 0.0 1.0 0.00 0.00 0.00 45 1016.0
20210925003338 79 88 0.0 1.0 0.00 0.00 0.00 44 1016.0
20210925003211 79 88 0.0 1.0 0.00 0.00 0.00 45 1016.0
20210925003044 79 88 0.0 1.0 0.00 0.00 0.00 46 1016.0
20210925002915 79 88 0.0 1.0 0.00 0.00 0.00 44 1016.0
20210925002746 79 88 0.0 1.0 0.00 0.00 0.00 44 1016.0
20210925002624 79 88 0.0 1.0 0.00 0.00 0.00 44 1016.0
20210925002502 79 88 0.0 1.0 0.00 0.00 0.00 43 1016.0
20210925002337 79 88 0.0 1.0 0.00 0.00 0.00 43 1016.0
20210925002157 79 88 0.0 1.0 0.00 0.00 0.00 43 1016.0
20210925002038 79 88 0.0 0.0 0.00 0.00 0.00 43 1016.0
20210925001915 79 88 0.0 0.0 0.00 0.00 0.00 42 1016.0
20210925001753 79 88 0.0 0.0 0.00 0.00 0.00 42 1016.0
20210925001625 79 88 0.0 0.0 0.00 0.00 0.00 42 1016.0
20210925001449 79 88 0.0 0.0 0.00 0.00 0.00 42 1016.0
20210925001327 79 88 0.0 0.0 0.00 0.00 0.00 42 1016.0
20210925001159 79 88 0.0 0.0 0.00 0.00 0.00 42 1016.0
20210925001037 80 88 0.0 0.0 0.00 0.00 0.00 42 1016.0
20210925000910 80 88 0.0 0.0 0.00 0.00 0.00 41 1016.0
20210925000740 80 88 0.0 0.0 0.00 0.00 0.00 42 1016.0
20210925000617 80 88 0.0 0.0 0.00 0.00 0.00 41 1016.0
20210925000450 80 88 0.0 0.0 0.00 0.00 0.00 41 1016.0
20210925000318 80 88 0.0 0.0 0.00 0.00 0.00 41 1016.0
20210925000151 80 88 0.0 0.0 0.00 0.00 0.00 40 1016.0
20210924235957 80 88 0.0 1.0 0.00 0.00 0.00 41 1015.9
20210924235826 80 88 0.0 1.0 0.00 0.00 0.00 42 1015.9
20210924235703 80 88 0.0 1.0 0.00 0.00 0.00 41 1015.9
20210924235543 80 88 0.0 1.0 0.00 0.00 0.00 41 1015.9
20210924235407 80 88 0.0 1.0 0.00 0.00 0.00 41 1015.9
20210924235244 80 88 0.0 1.0 0.00 0.00 0.00 41 1015.9
20210924235125 81 88 0.0 1.0 0.00 0.00 0.00 40 1015.9
20210924235000 81 88 0.0 1.0 0.00 0.00 0.00 40 1015.9
20210924234842 81 88 0.0 1.0 0.00 0.00 0.00 40 1015.9
20210924234725 81 88 0.0 1.0 0.00 0.00 0.00 39 1015.9
20210924234604 81 88 0.0 1.0 0.00 0.00 0.00 39 1015.9
20210924234430 81 88 0.0 1.0 0.00 0.00 0.00 39 1016.0
20210924234304 81 88 0.0 1.0 0.00 0.00 0.00 39 1016.0
20210924234146 81 88 0.0 0.0 0.00 0.00 0.00 40 1016.0
20210924234025 81 88 0.0 0.0 0.00 0.00 0.00 41 1016.0
20210924233858 81 88 0.0 0.0 0.00 0.00 0.00 38 1016.0
20210924233730 81 88 0.0 0.0 0.00 0.00 0.00 39 1016.0
20210924233555 81 88 0.0 0.0 0.00 0.00 0.00 38 1016.0
20210924233433 82 88 0.0 1.0 0.00 0.00 0.00 40 1016.0
20210924233307 82 88 0.0 1.0 0.00 0.00 0.00 40 1016.0
20210924233149 82 88 0.0 1.0 0.00 0.00 0.00 40 1016.0
20210924233022 82 88 0.0 1.0 0.00 0.00 0.00 40 1016.0
20210924232857 82 88 0.0 1.0 0.00 0.00 0.00 39 1016.0
20210924232713 82 88 0.0 1.0 0.00 0.00 0.00 38 1016.0
20210924232545 82 88 0.0 1.0 0.00 0.00 0.00 38 1016.0
20210924232418 82 85 0.0 1.0 0.00 0.00 0.00 38 1016.0
20210924232247 82 101 0.0 1.0 0.00 0.00 0.00 38 1016.0
20210924232130 82 101 0.0 1.0 0.00 0.00 0.00 37 1016.0
20210924231954 82 101 0.0 2.0 0.00 0.00 0.00 38 1016.0
20210924231835 83 101 0.0 2.0 0.00 0.00 0.00 38 1016.0
20210924231708 83 101 0.0 2.0 0.00 0.00 0.00 38 1016.0
20210924231545 83 101 0.0 2.0 0.00 0.00 0.00 38 1016.0
20210924231420 83 101 0.0 2.0 0.00 0.00 0.00 38 1016.0
20210924231240 83 102 0.0 2.0 0.00 0.00 0.00 39 1016.0
20210924231111 83 103 0.0 2.0 0.00 0.00 0.00 38 1016.0
20210924230949 83 103 0.0 2.0 0.00 0.00 0.00 36 1016.0
20210924230823 84 96 0.0 2.0 0.00 0.00 0.00 35 1016.0
20210924230648 84 96 0.0 2.0 0.00 0.00 0.00 37 1016.0
20210924230520 84 96 0.0 2.0 0.00 0.00 0.00 37 1016.0
20210924230358 85 96 0.0 2.0 0.00 0.00 0.00 36 1016.0
20210924230234 85 100 0.0 2.0 0.00 0.00 0.00 37 1016.0
20210924230101 85 86 0.0 3.0 0.00 0.00 0.00 38 1016.0
20210924225933 85 86 0.0 3.0 0.00 0.00 0.00 37 1016.0
20210924225747 85 86 0.0 3.0 0.00 0.00 0.00 37 1016.0
20210924225622 85 86 0.0 3.0 0.00 0.00 0.00 36 1016.0
20210924225458 85 86 1.0 3.0 0.00 0.00 0.00 36 1016.0
20210924225335 85 86 0.0 3.0 0.00 0.00 0.00 36 1016.0
20210924225215 85 58 0.0 2.0 0.00 0.00 0.00 37 1016.0
20210924225038 85 286 0.0 1.0 0.00 0.00 0.00 36 1016.0
20210924224912 85 286 0.0 1.0 0.00 0.00 0.00 37 1016.0
20210924224749 85 286 0.0 1.0 0.00 0.00 0.00 36 1016.0
20210924224627 85 286 0.0 1.0 0.00 0.00 0.00 37 1016.0
20210924224500 85 286 0.0 1.0 0.00 0.00 0.00 36 1016.0
20210924224338 85 286 0.0 1.0 0.00 0.00 0.00 36 1016.0
20210924224200 84 286 0.0 2.0 0.00 0.00 0.00 37 1016.0
20210924224036 84 286 0.0 2.0 0.00 0.00 0.00 36 1016.0
20210924223911 84 286 0.0 2.0 0.00 0.00 0.00 37 1016.0
20210924223740 84 286 0.0 2.0 0.00 0.00 0.00 36 1016.0
20210924223606 84 286 0.0 2.0 0.00 0.00 0.00 35 1016.0
20210924223442 84 286 0.0 1.0 0.00 0.00 0.00 34 1016.0
20210924223315 85 286 0.0 2.0 0.00 0.00 0.00 35 1016.0
20210924223151 85 286 0.0 2.0 0.00 0.00 0.00 35 1016.0
20210924223034 85 286 0.0 2.0 0.00 0.00 0.00 35 1016.0
20210924222910 85 286 0.0 2.0 0.00 0.00 0.00 37 1016.0
20210924222732 85 289 0.0 2.0 0.00 0.00 0.00 38 1016.0
20210924222619 84 289 0.0 2.0 0.00 0.00 0.00 36 1016.0
20210924222502 84 289 1.0 2.0 0.00 0.00 0.00 36 1016.0
20210924222340 84 288 1.0 2.0 0.00 0.00 0.00 37 1016.0
20210924222214 84 163 1.0 2.0 0.00 0.00 0.00 38 1016.0
20210924222053 84 84 0.0 2.0 0.00 0.00 0.00 36 1016.0
20210924221928 84 84 0.0 2.0 0.00 0.00 0.00 36 1016.0
20210924221753 84 84 0.0 2.0 0.00 0.00 0.00 37 1016.0
20210924221627 84 84 0.0 1.0 0.00 0.00 0.00 36 1016.0
20210924221455 84 84 0.0 1.0 0.00 0.00 0.00 36 1016.0
20210924221333 84 84 0.0 1.0 0.00 0.00 0.00 37 1016.0
20210924221208 84 84 0.0 1.0 0.00 0.00 0.00 37 1016.0
20210924221030 84 84 0.0 1.0 0.00 0.00 0.00 36 1016.0
20210924220906 84 84 0.0 2.0 0.00 0.00 0.00 36 1016.0
20210924220740 84 84 0.0 2.0 0.00 0.00 0.00 35 1016.0
20210924220616 84 84 0.0 2.0 0.00 0.00 0.00 36 1016.0